"SCET";"TARGET";"ELECTRON_DENSITY";"ERROR_FLAG";"ELECTRON_DENSITY_ERROR";"FREQ_FCE";"MEASURED_VALUE";"MEASURED_ITEM";"FREQ_PLASMA";"FREQ_UPPER_HYBRID";"FREQ_R_EQUALS_ZERO";"FREQ_L_EQUALS_ZERO";"ORBIT_NUMBER";"SATURN_RADIUS";"SATURN_IAU_LONGITUDE";"SATURN_SLS4_S_LONGITUDE";"SATURN_SLS4_N_LONGITUDE";"SATURN_SLS5_S_LONGITUDE";"SATURN_SLS5_N_LONGITUDE";"SATURN_LOCAL_TIME";"SATURN_KRONOGRAPHIC_LATITUDE";"SATURN_MAGNETIC_LATITUDE";"SATURN_L";"SATURN_L_OFFSET";"SATURN_SOLAR_EQUATORIAL_X";"SATURN_SOLAR_EQUATORIAL_Y";"SATURN_SOLAR_EQUATORIAL_Z";"SATURN_ALTITUDE";"ENCELADUS_ENCOUNTER_NUMBER";"ENCELADUS_RADIUS";"ENCELADUS_COROTATIONAL_X";"ENCELADUS_COROTATIONAL_Y";"ENCELADUS_COROTATIONAL_Z";"ENCELADUS_TRUE_ANOMALY";"ENCELADUS_PERIAPSIS_TIME";"JUPITER_RADIUS";"JUPITER_SYSTEMIII_LONGITUDE";"JUPITER_MAGNETIC_LATITUDE";"JUPITER_MAGNETIC_LOCAL_TIME";"JUPITER_L";"IO_PHASE";"EARTH_RADIUS";"EARTH_MAGNETIC_LATITUDE";"EARTH_LOCAL_TIME";"EARTH_L"
"[UTC]";"[0=Saturn, 1=Enceladus, 2=Jupiter, 3=Earth]";"[cm-3]";"[0=automated, 1=manual]";"[normalized density error]";"[Hz]";"[Hz]";"[0=upper hybrid frequency, 1=plasma frequency cutoff]";"[Hz]";"[Hz]";"[Hz]";"[Hz}";"[0, A, B, C, 3, 4, ... , 292, 293]";"[Rs where 1Rs=60268km]";"[degrees]";"[degrees]";"[degrees]";"[degrees]";"[degrees]";"[hours]";"[degrees]";"[degrees where offset=2293km north]";"[Rs where 1Rs=60268km]";"[Rs where 1Rs=60268km and offset=2293km north]";"[Rs where 1Rs=60268km]";"[Rs where 1Rs=60268km]";"[Rs where 1Rs=60268km]";"[km where ellipsoid a,b=60268km and c=54364km]";"[E0, E1, E2, ... , E21, E22]";"[Renc where 1Renc=252.1km]";"[Renc where 1Renc=252.1km]";"[Renc where 1Renc=252.1km]";"[Renc where 1Renc=252.1km]";"[degrees]";"[UTC]";"[Rj where 1Rj=71492km]";"[degrees]";"[degrees using JRM09 model]";"[hours using JRM09 model]";"[Rj where 1Rj=71492km]";"[degrees]";"[Re where 1Re=6378.1366km]";"[degrees]";"[hours]";"[Re where 1Re=6378.1366km]"
2001-01-21T00:00:57.309Z;2;1.5410e-01;1;     0.256;    21.924;   3525.513; 1;   3525.513;   3525.581;   3536.492;   3514.568;;;;;;;;;;;;;;;;;;;;;;;; 315.991; 338.753; -11.484;  20.448; 329.033; 145.861;;;;
2001-01-21T00:02:01.309Z;2;1.5410e-01;1;     0.256;    22.119;   3525.513; 1;   3525.513;   3525.582;   3536.590;   3514.471;;;;;;;;;;;;;;;;;;;;;;;; 316.000; 339.397; -11.556;  20.447; 329.210; 146.010;;;;
2001-01-21T00:03:05.308Z;2;1.5410e-01;1;     0.256;    22.414;   3525.513; 1;   3525.513;   3525.584;   3536.738;   3514.324;;;;;;;;;;;;;;;;;;;;;;;; 316.009; 340.041; -11.626;  20.446; 329.385; 146.159;;;;
2001-01-21T00:04:09.308Z;2;1.5410e-01;1;     0.256;    23.894;   3525.513; 1;   3525.513;   3525.594;   3537.480;   3513.586;;;;;;;;;;;;;;;;;;;;;;;; 316.017; 340.685; -11.696;  20.445; 329.559; 146.308;;;;
2001-01-21T00:05:13.307Z;2;1.5410e-01;1;     0.256;    23.640;   3525.513; 1;   3525.513;   3525.592;   3537.353;   3513.713;;;;;;;;;;;;;;;;;;;;;;;; 316.026; 341.329; -11.764;  20.443; 329.732; 146.457;;;;
2001-01-21T00:06:17.307Z;2;1.5410e-01;1;     0.256;    22.263;   3525.513; 1;   3525.513;   3525.583;   3536.662;   3514.399;;;;;;;;;;;;;;;;;;;;;;;; 316.035; 341.973; -11.831;  20.442; 329.903; 146.606;;;;
2001-01-21T00:07:21.306Z;2;1.5410e-01;1;     0.256;    21.841;   3525.513; 1;   3525.513;   3525.581;   3536.450;   3514.609;;;;;;;;;;;;;;;;;;;;;;;; 316.043; 342.617; -11.898;  20.441; 330.073; 146.755;;;;
2001-01-21T00:08:25.306Z;2;1.6120e-01;1;     0.311;    23.127;   3605.327; 1;   3605.327;   3605.401;   3616.909;   3593.782;;;;;;;;;;;;;;;;;;;;;;;; 316.052; 343.261; -11.963;  20.440; 330.241; 146.904;;;;
2001-01-21T00:09:29.305Z;2;1.6120e-01;1;     0.311;    22.450;   3605.327; 1;   3605.327;   3605.397;   3616.569;   3594.119;;;;;;;;;;;;;;;;;;;;;;;; 316.061; 343.905; -12.027;  20.438; 330.407; 147.053;;;;
2001-01-21T00:10:33.305Z;2;1.6120e-01;1;     0.311;    21.429;   3605.327; 1;   3605.327;   3605.391;   3616.057;   3594.628;;;;;;;;;;;;;;;;;;;;;;;; 316.069; 344.549; -12.090;  20.437; 330.571; 147.202;;;;
2001-01-21T00:11:37.304Z;2;1.6120e-01;1;     0.311;    21.715;   3605.327; 1;   3605.327;   3605.392;   3616.200;   3594.486;;;;;;;;;;;;;;;;;;;;;;;; 316.078; 345.193; -12.152;  20.436; 330.734; 147.351;;;;
2001-01-21T00:12:41.304Z;2;1.5410e-01;1;     0.256;    22.170;   3525.513; 1;   3525.513;   3525.583;   3536.615;   3514.445;;;;;;;;;;;;;;;;;;;;;;;; 316.087; 345.837; -12.213;  20.434; 330.895; 147.500;;;;
2001-01-21T00:13:45.304Z;2;1.5410e-01;1;     0.256;    22.323;   3525.513; 1;   3525.513;   3525.583;   3536.692;   3514.369;;;;;;;;;;;;;;;;;;;;;;;; 316.096; 346.481; -12.272;  20.433; 331.053; 147.649;;;;
2001-01-21T00:14:49.303Z;2;1.6120e-01;1;     0.311;    22.744;   3605.327; 1;   3605.327;   3605.399;   3616.717;   3593.973;;;;;;;;;;;;;;;;;;;;;;;; 316.104; 347.125; -12.331;  20.432; 331.210; 147.798;;;;
2001-01-21T00:15:53.303Z;2;1.5410e-01;1;     0.256;    23.531;   3525.513; 1;   3525.513;   3525.592;   3537.298;   3513.767;;;;;;;;;;;;;;;;;;;;;;;; 316.113; 347.770; -12.388;  20.430; 331.365; 147.947;;;;
2001-01-21T00:16:57.302Z;2;1.5410e-01;1;     0.256;    24.140;   3525.513; 1;   3525.513;   3525.596;   3537.604;   3513.464;;;;;;;;;;;;;;;;;;;;;;;; 316.122; 348.414; -12.445;  20.429; 331.517; 148.096;;;;
2001-01-21T00:18:01.302Z;2;1.5410e-01;1;     0.256;    23.909;   3525.513; 1;   3525.513;   3525.594;   3537.488;   3513.579;;;;;;;;;;;;;;;;;;;;;;;; 316.130; 349.058; -12.500;  20.428; 331.667; 148.245;;;;
2001-01-21T00:19:05.301Z;2;1.6120e-01;1;     0.311;    23.329;   3605.327; 1;   3605.327;   3605.402;   3617.010;   3593.681;;;;;;;;;;;;;;;;;;;;;;;; 316.139; 349.702; -12.554;  20.426; 331.815; 148.394;;;;
2001-01-21T00:20:09.301Z;2;1.6120e-01;1;     0.311;    22.858;   3605.327; 1;   3605.327;   3605.399;   3616.774;   3593.916;;;;;;;;;;;;;;;;;;;;;;;; 316.148; 350.346; -12.607;  20.425; 331.961; 148.543;;;;
2001-01-21T00:21:13.301Z;2;1.5410e-01;1;     0.256;    22.800;   3525.513; 1;   3525.513;   3525.587;   3536.931;   3514.131;;;;;;;;;;;;;;;;;;;;;;;; 316.157; 350.990; -12.658;  20.423; 332.104; 148.692;;;;
2001-01-21T00:22:17.300Z;2;1.5410e-01;1;     0.256;    23.517;   3525.513; 1;   3525.513;   3525.591;   3537.291;   3513.774;;;;;;;;;;;;;;;;;;;;;;;; 316.165; 351.634; -12.709;  20.422; 332.245; 148.841;;;;
2001-01-21T00:23:21.300Z;2;1.5410e-01;1;     0.256;    23.339;   3525.513; 1;   3525.513;   3525.590;   3537.202;   3513.863;;;;;;;;;;;;;;;;;;;;;;;; 316.174; 352.278; -12.758;  20.421; 332.383; 148.990;;;;
2001-01-21T00:24:25.299Z;2;1.5410e-01;1;     0.256;    23.778;   3525.513; 1;   3525.513;   3525.593;   3537.422;   3513.644;;;;;;;;;;;;;;;;;;;;;;;; 316.183; 352.922; -12.806;  20.419; 332.519; 149.139;;;;
2001-01-21T00:25:29.299Z;2;1.6120e-01;1;     0.311;    25.291;   3605.327; 1;   3605.327;   3605.416;   3617.995;   3592.703;;;;;;;;;;;;;;;;;;;;;;;; 316.191; 353.566; -12.853;  20.418; 332.652; 149.288;;;;
2001-01-21T00:26:33.298Z;2;1.6120e-01;1;     0.311;    24.757;   3605.327; 1;   3605.327;   3605.412;   3617.727;   3592.970;;;;;;;;;;;;;;;;;;;;;;;; 316.200; 354.210; -12.898;  20.416; 332.782; 149.437;;;;
2001-01-21T00:27:37.298Z;2;1.5410e-01;1;     0.256;    25.338;   3525.513; 1;   3525.513;   3525.604;   3538.205;   3512.867;;;;;;;;;;;;;;;;;;;;;;;; 316.209; 354.854; -12.943;  20.415; 332.909; 149.586;;;;
2001-01-21T00:28:41.297Z;2;1.6860e-01;1;     0.304;    23.448;   3686.947; 1;   3686.947;   3687.021;   3698.690;   3675.242;;;;;;;;;;;;;;;;;;;;;;;; 316.218; 355.498; -12.986;  20.414; 333.034; 149.735;;;;
2001-01-21T00:29:45.297Z;2;1.6860e-01;1;     0.304;    23.311;   3686.947; 1;   3686.947;   3687.021;   3698.621;   3675.310;;;;;;;;;;;;;;;;;;;;;;;; 316.226; 356.142; -13.028;  20.412; 333.156; 149.884;;;;
2001-01-21T00:30:49.297Z;2;1.6860e-01;1;     0.304;    24.115;   3686.947; 1;   3686.947;   3687.026;   3699.024;   3674.909;;;;;;;;;;;;;;;;;;;;;;;; 316.235; 356.786; -13.069;  20.411; 333.275; 150.033;;;;
2001-01-21T00:31:53.296Z;2;1.6860e-01;1;     0.304;    23.872;   3686.947; 1;   3686.947;   3687.024;   3698.903;   3675.030;;;;;;;;;;;;;;;;;;;;;;;; 316.244; 357.430; -13.108;  20.409; 333.391; 150.182;;;;
2001-01-21T00:32:57.295Z;2;1.7630e-01;1;     0.297;    23.953;   3770.414; 1;   3770.414;   3770.490;   3782.410;   3758.456;;;;;;;;;;;;;;;;;;;;;;;; 316.252; 358.074; -13.146;  20.408; 333.504; 150.331;;;;
2001-01-21T00:34:01.295Z;2;1.7630e-01;1;     0.297;    23.216;   3770.414; 1;   3770.414;   3770.486;   3782.040;   3758.824;;;;;;;;;;;;;;;;;;;;;;;; 316.261; 358.718; -13.183;  20.407; 333.613; 150.480;;;;
2001-01-21T00:35:05.295Z;2;1.6120e-01;1;     0.311;    23.520;   3605.327; 1;   3605.327;   3605.404;   3617.106;   3593.586;;;;;;;;;;;;;;;;;;;;;;;; 316.270; 359.362; -13.219;  20.405; 333.720; 150.630;;;;
2001-01-21T00:36:09.294Z;2;1.6860e-01;1;     0.304;    23.852;   3686.947; 1;   3686.947;   3687.024;   3698.892;   3675.040;;;;;;;;;;;;;;;;;;;;;;;; 316.278;   0.006; -13.253;  20.404; 333.824; 150.779;;;;
2001-01-21T00:37:13.294Z;2;1.6860e-01;1;     0.304;    24.267;   3686.947; 1;   3686.947;   3687.027;   3699.101;   3674.833;;;;;;;;;;;;;;;;;;;;;;;; 316.287;   0.650; -13.286;  20.402; 333.924; 150.928;;;;
2001-01-21T00:38:17.293Z;2;1.6860e-01;1;     0.304;    24.948;   3686.947; 1;   3686.947;   3687.031;   3699.442;   3674.494;;;;;;;;;;;;;;;;;;;;;;;; 316.296;   1.294; -13.318;  20.401; 334.021; 151.077;;;;
2001-01-21T00:39:21.293Z;2;1.6860e-01;1;     0.304;    27.115;   3686.947; 1;   3686.947;   3687.047;   3700.529;   3673.415;;;;;;;;;;;;;;;;;;;;;;;; 316.305;   1.938; -13.349;  20.400; 334.115; 151.226;;;;
2001-01-21T00:40:25.292Z;2;1.5410e-01;1;     0.256;    24.229;   3525.513; 1;   3525.513;   3525.596;   3537.648;   3513.419;;;;;;;;;;;;;;;;;;;;;;;; 316.313;   2.582; -13.378;  20.398; 334.206; 151.375;;;;
2001-01-21T00:41:29.292Z;2;1.5410e-01;1;     0.256;    25.316;   3525.513; 1;   3525.513;   3525.604;   3538.193;   3512.878;;;;;;;;;;;;;;;;;;;;;;;; 316.322;   3.226; -13.406;  20.397; 334.293; 151.524;;;;
2001-01-21T00:42:33.292Z;2;1.6120e-01;1;     0.311;    24.417;   3605.327; 1;   3605.327;   3605.410;   3617.556;   3593.139;;;;;;;;;;;;;;;;;;;;;;;; 316.331;   3.870; -13.433;  20.395; 334.376; 151.673;;;;
2001-01-21T00:43:37.291Z;2;1.6120e-01;1;     0.311;    25.230;   3605.327; 1;   3605.327;   3605.415;   3617.964;   3592.734;;;;;;;;;;;;;;;;;;;;;;;; 316.339;   4.514; -13.459;  20.394; 334.457; 151.822;;;;
2001-01-21T00:44:41.291Z;2;1.6120e-01;1;     0.311;    23.356;   3605.327; 1;   3605.327;   3605.403;   3617.024;   3593.667;;;;;;;;;;;;;;;;;;;;;;;; 316.348;   5.158; -13.483;  20.393; 334.533; 151.971;;;;
2001-01-21T00:45:45.290Z;2;1.6120e-01;1;     0.311;    24.605;   3605.327; 1;   3605.327;   3605.411;   3617.651;   3593.045;;;;;;;;;;;;;;;;;;;;;;;; 316.357;   5.802; -13.506;  20.391; 334.607; 152.120;;;;
2001-01-21T00:46:49.290Z;2;1.6860e-01;1;     0.581;    25.816;   3686.947; 1;   3686.947;   3687.037;   3699.878;   3674.061;;;;;;;;;;;;;;;;;;;;;;;; 316.366;   6.446; -13.527;  20.390; 334.676; 152.269;;;;
2001-01-21T00:47:53.289Z;2;1.6120e-01;1;     0.311;    24.436;   3605.327; 1;   3605.327;   3605.410;   3617.566;   3593.129;;;;;;;;;;;;;;;;;;;;;;;; 316.374;   7.090; -13.547;  20.389; 334.743; 152.418;;;;
2001-01-21T00:48:57.289Z;2;1.6120e-01;1;     0.594;    25.818;   3605.327; 1;   3605.327;   3605.419;   3618.259;   3592.441;;;;;;;;;;;;;;;;;;;;;;;; 316.383;   7.734; -13.566;  20.387; 334.805; 152.567;;;;
2001-01-21T00:50:01.289Z;2;1.6120e-01;1;     0.594;    26.032;   3605.327; 1;   3605.327;   3605.421;   3618.367;   3592.334;;;;;;;;;;;;;;;;;;;;;;;; 316.392;   8.378; -13.584;  20.386; 334.864; 152.717;;;;
2001-01-21T00:51:05.288Z;2;1.6860e-01;1;     0.581;    26.216;   3686.947; 1;   3686.947;   3687.040;   3700.078;   3673.863;;;;;;;;;;;;;;;;;;;;;;;; 316.400;   9.022; -13.600;  20.385; 334.919; 152.866;;;;
2001-01-21T00:52:09.287Z;2;1.7630e-01;1;     0.297;    26.865;   3770.414; 1;   3770.414;   3770.510;   3783.871;   3757.005;;;;;;;;;;;;;;;;;;;;;;;; 316.409;   9.666; -13.615;  20.383; 334.971; 153.015;;;;
2001-01-21T00:53:13.287Z;2;1.7630e-01;1;     0.297;    27.143;   3770.414; 1;   3770.414;   3770.512;   3784.010;   3756.867;;;;;;;;;;;;;;;;;;;;;;;; 316.418;  10.310; -13.629;  20.382; 335.019; 153.164;;;;
2001-01-21T00:54:17.287Z;2;1.7630e-01;1;     0.297;    27.265;   3770.414; 1;   3770.414;   3770.513;   3784.072;   3756.806;;;;;;;;;;;;;;;;;;;;;;;; 316.427;  10.954; -13.641;  20.381; 335.063; 153.313;;;;
2001-01-21T00:55:21.286Z;2;1.6860e-01;1;     0.304;    26.184;   3686.947; 1;   3686.947;   3687.040;   3700.062;   3673.878;;;;;;;;;;;;;;;;;;;;;;;; 316.435;  11.598; -13.652;  20.380; 335.104; 153.462;;;;
2001-01-21T00:56:25.286Z;2;1.6860e-01;1;     0.304;    27.567;   3686.947; 1;   3686.947;   3687.050;   3700.756;   3673.189;;;;;;;;;;;;;;;;;;;;;;;; 316.444;  12.242; -13.662;  20.378; 335.141; 153.611;;;;
2001-01-21T00:57:29.285Z;2;1.7630e-01;1;     0.297;    26.964;   3770.414; 1;   3770.414;   3770.510;   3783.920;   3756.956;;;;;;;;;;;;;;;;;;;;;;;; 316.453;  12.886; -13.670;  20.377; 335.174; 153.760;;;;
2001-01-21T00:58:33.285Z;2;1.7630e-01;1;     0.297;    26.156;   3770.414; 1;   3770.414;   3770.505;   3783.515;   3757.359;;;;;;;;;;;;;;;;;;;;;;;; 316.461;  13.530; -13.677;  20.376; 335.203; 153.909;;;;
2001-01-21T00:59:37.285Z;2;1.7630e-01;1;     0.297;    26.066;   3770.414; 1;   3770.414;   3770.504;   3783.469;   3757.404;;;;;;;;;;;;;;;;;;;;;;;; 316.470;  14.174; -13.683;  20.375; 335.229; 154.058;;;;
2001-01-21T01:00:41.284Z;2;1.7630e-01;1;     0.297;    27.016;   3770.414; 1;   3770.414;   3770.511;   3783.946;   3756.930;;;;;;;;;;;;;;;;;;;;;;;; 316.479;  14.818; -13.688;  20.374; 335.250; 154.208;;;;
2001-01-21T01:01:45.284Z;2;1.7630e-01;1;     0.297;    27.113;   3770.414; 1;   3770.414;   3770.511;   3783.995;   3756.882;;;;;;;;;;;;;;;;;;;;;;;; 316.487;  15.462; -13.691;  20.372; 335.268; 154.357;;;;
2001-01-21T01:02:49.283Z;2;1.7630e-01;1;     0.297;    27.384;   3770.414; 1;   3770.414;   3770.513;   3784.131;   3756.747;;;;;;;;;;;;;;;;;;;;;;;; 316.496;  16.106; -13.692;  20.371; 335.282; 154.506;;;;
2001-01-21T01:03:53.283Z;2;1.7630e-01;1;     0.297;    25.562;   3770.414; 1;   3770.414;   3770.501;   3783.217;   3757.655;;;;;;;;;;;;;;;;;;;;;;;; 316.505;  16.750; -13.693;  20.370; 335.293; 154.655;;;;
2001-01-21T01:04:57.282Z;2;1.7630e-01;1;     0.297;    23.782;   3770.414; 1;   3770.414;   3770.489;   3782.324;   3758.542;;;;;;;;;;;;;;;;;;;;;;;; 316.514;  17.394; -13.692;  20.369; 335.299; 154.804;;;;
2001-01-21T01:06:01.282Z;2;1.7630e-01;1;     0.297;    26.383;   3770.414; 1;   3770.414;   3770.506;   3783.629;   3757.245;;;;;;;;;;;;;;;;;;;;;;;; 316.522;  18.038; -13.690;  20.368; 335.302; 154.953;;;;
2001-01-21T01:07:05.281Z;2;1.7630e-01;1;     0.297;    27.765;   3770.414; 1;   3770.414;   3770.516;   3784.322;   3756.557;;;;;;;;;;;;;;;;;;;;;;;; 316.531;  18.682; -13.686;  20.367; 335.301; 155.102;;;;
2001-01-21T01:08:09.281Z;2;1.7630e-01;1;     0.297;    25.883;   3770.414; 1;   3770.414;   3770.503;   3783.378;   3757.495;;;;;;;;;;;;;;;;;;;;;;;; 316.540;  19.326; -13.681;  20.366; 335.296; 155.251;;;;
2001-01-21T01:09:13.281Z;2;1.7630e-01;1;     0.297;    23.493;   3770.414; 1;   3770.414;   3770.487;   3782.179;   3758.686;;;;;;;;;;;;;;;;;;;;;;;; 316.548;  19.971; -13.675;  20.365; 335.288; 155.401;;;;
2001-01-21T01:10:17.280Z;2;1.7630e-01;1;     0.297;    23.808;   3770.414; 1;   3770.414;   3770.489;   3782.337;   3758.529;;;;;;;;;;;;;;;;;;;;;;;; 316.557;  20.615; -13.667;  20.364; 335.275; 155.550;;;;
2001-01-21T01:11:21.280Z;2;1.8440e-01;1;     0.322;    24.926;   3855.772; 1;   3855.772;   3855.853;   3868.255;   3843.329;;;;;;;;;;;;;;;;;;;;;;;; 316.566;  21.259; -13.658;  20.363; 335.259; 155.699;;;;
2001-01-21T01:12:25.279Z;2;1.8440e-01;1;     0.322;    25.571;   3855.772; 1;   3855.772;   3855.857;   3868.579;   3843.008;;;;;;;;;;;;;;;;;;;;;;;; 316.575;  21.903; -13.648;  20.362; 335.239; 155.848;;;;
2001-01-21T01:13:29.279Z;2;1.7630e-01;1;     0.297;    26.859;   3770.414; 1;   3770.414;   3770.510;   3783.867;   3757.009;;;;;;;;;;;;;;;;;;;;;;;; 316.583;  22.547; -13.637;  20.361; 335.216; 155.997;;;;
2001-01-21T01:14:33.278Z;2;1.7630e-01;1;     0.297;    27.484;   3770.414; 1;   3770.414;   3770.514;   3784.181;   3756.697;;;;;;;;;;;;;;;;;;;;;;;; 316.592;  23.191; -13.624;  20.360; 335.188; 156.146;;;;
2001-01-21T01:15:37.278Z;2;1.7630e-01;1;     0.297;    26.425;   3770.414; 1;   3770.414;   3770.507;   3783.650;   3757.225;;;;;;;;;;;;;;;;;;;;;;;; 316.601;  23.835; -13.609;  20.359; 335.157; 156.295;;;;
2001-01-21T01:16:41.277Z;2;1.7630e-01;1;     0.297;    25.644;   3770.414; 1;   3770.414;   3770.501;   3783.258;   3757.614;;;;;;;;;;;;;;;;;;;;;;;; 316.609;  24.479; -13.594;  20.358; 335.123; 156.445;;;;
2001-01-21T01:17:45.277Z;2;1.7630e-01;1;     0.297;    27.206;   3770.414; 1;   3770.414;   3770.512;   3784.042;   3756.835;;;;;;;;;;;;;;;;;;;;;;;; 316.618;  25.123; -13.577;  20.357; 335.084; 156.594;;;;
2001-01-21T01:18:49.277Z;2;1.8440e-01;1;     0.322;    26.160;   3855.772; 1;   3855.772;   3855.861;   3868.874;   3842.714;;;;;;;;;;;;;;;;;;;;;;;; 316.627;  25.767; -13.559;  20.357; 335.042; 156.743;;;;
2001-01-21T01:19:53.276Z;2;1.7630e-01;1;     0.297;    25.516;   3770.414; 1;   3770.414;   3770.500;   3783.193;   3757.678;;;;;;;;;;;;;;;;;;;;;;;; 316.636;  26.411; -13.539;  20.356; 334.997; 156.892;;;;
2001-01-21T01:20:57.276Z;2;1.7630e-01;1;     0.297;    24.620;   3770.414; 1;   3770.414;   3770.494;   3782.744;   3758.124;;;;;;;;;;;;;;;;;;;;;;;; 316.644;  27.055; -13.519;  20.355; 334.947; 157.041;;;;
2001-01-21T01:22:01.275Z;2;1.7630e-01;1;     0.297;    26.343;   3770.414; 1;   3770.414;   3770.506;   3783.609;   3757.265;;;;;;;;;;;;;;;;;;;;;;;; 316.653;  27.699; -13.497;  20.354; 334.895; 157.190;;;;
2001-01-21T01:23:05.275Z;2;1.7630e-01;1;     0.297;    26.983;   3770.414; 1;   3770.414;   3770.510;   3783.929;   3756.947;;;;;;;;;;;;;;;;;;;;;;;; 316.662;  28.343; -13.473;  20.354; 334.838; 157.340;;;;
2001-01-21T01:24:09.274Z;2;1.7630e-01;1;     0.297;    26.511;   3770.414; 1;   3770.414;   3770.507;   3783.693;   3757.182;;;;;;;;;;;;;;;;;;;;;;;; 316.670;  28.987; -13.449;  20.353; 334.778; 157.489;;;;
2001-01-21T01:25:13.274Z;2;1.7630e-01;1;     0.297;    26.749;   3770.414; 1;   3770.414;   3770.509;   3783.812;   3757.063;;;;;;;;;;;;;;;;;;;;;;;; 316.679;  29.631; -13.423;  20.352; 334.715; 157.638;;;;
2001-01-21T01:26:17.274Z;2;1.7630e-01;1;     0.297;    28.250;   3770.414; 1;   3770.414;   3770.520;   3784.566;   3756.315;;;;;;;;;;;;;;;;;;;;;;;; 316.688;  30.275; -13.395;  20.352; 334.648; 157.787;;;;
2001-01-21T01:27:21.273Z;2;1.7630e-01;1;     0.297;    26.059;   3770.414; 1;   3770.414;   3770.504;   3783.466;   3757.407;;;;;;;;;;;;;;;;;;;;;;;; 316.697;  30.919; -13.367;  20.351; 334.578; 157.936;;;;
2001-01-21T01:28:25.272Z;2;1.7630e-01;1;     0.297;    23.146;   3770.414; 1;   3770.414;   3770.485;   3782.005;   3758.859;;;;;;;;;;;;;;;;;;;;;;;; 316.705;  31.563; -13.337;  20.350; 334.505; 158.085;;;;
2001-01-21T01:29:29.272Z;2;1.7630e-01;1;     0.297;    27.316;   3770.414; 1;   3770.414;   3770.513;   3784.097;   3756.781;;;;;;;;;;;;;;;;;;;;;;;; 316.714;  32.207; -13.306;  20.350; 334.428; 158.235;;;;
2001-01-21T01:30:33.272Z;2;1.7630e-01;1;     0.297;    24.373;   3770.414; 1;   3770.414;   3770.493;   3782.620;   3758.247;;;;;;;;;;;;;;;;;;;;;;;; 316.723;  32.851; -13.273;  20.349; 334.348; 158.384;;;;
2001-01-21T01:31:37.271Z;2;1.7630e-01;1;     0.297;    27.741;   3770.414; 1;   3770.414;   3770.516;   3784.310;   3756.569;;;;;;;;;;;;;;;;;;;;;;;; 316.731;  33.495; -13.240;  20.349; 334.264; 158.533;;;;
2001-01-21T01:32:41.271Z;2;1.7630e-01;1;     0.297;    27.847;   3770.414; 1;   3770.414;   3770.517;   3784.363;   3756.516;;;;;;;;;;;;;;;;;;;;;;;; 316.740;  34.139; -13.205;  20.348; 334.178; 158.682;;;;
2001-01-21T01:33:45.270Z;2;1.7630e-01;1;     0.297;    27.315;   3770.414; 1;   3770.414;   3770.513;   3784.096;   3756.781;;;;;;;;;;;;;;;;;;;;;;;; 316.749;  34.783; -13.168;  20.348; 334.088; 158.831;;;;
2001-01-21T01:34:49.270Z;2;1.7630e-01;1;     0.297;    24.959;   3770.414; 1;   3770.414;   3770.497;   3782.914;   3757.955;;;;;;;;;;;;;;;;;;;;;;;; 316.757;  35.427; -13.131;  20.347; 333.995; 158.981;;;;
2001-01-21T01:35:53.270Z;2;1.7630e-01;1;     0.297;    27.461;   3770.414; 1;   3770.414;   3770.514;   3784.170;   3756.708;;;;;;;;;;;;;;;;;;;;;;;; 316.766;  36.071; -13.092;  20.347; 333.899; 159.130;;;;
2001-01-21T01:36:57.269Z;2;1.7630e-01;1;     0.297;    29.208;   3770.414; 1;   3770.414;   3770.527;   3785.046;   3755.838;;;;;;;;;;;;;;;;;;;;;;;; 316.775;  36.715; -13.052;  20.347; 333.800; 159.279;;;;
2001-01-21T01:38:01.269Z;2;1.7630e-01;1;     0.297;    27.556;   3770.414; 1;   3770.414;   3770.515;   3784.217;   3756.661;;;;;;;;;;;;;;;;;;;;;;;; 316.784;  37.359; -13.011;  20.346; 333.698; 159.428;;;;
2001-01-21T01:39:05.268Z;2;1.7630e-01;1;     0.297;    25.179;   3770.414; 1;   3770.414;   3770.498;   3783.025;   3757.846;;;;;;;;;;;;;;;;;;;;;;;; 316.792;  38.003; -12.969;  20.346; 333.593; 159.577;;;;
2001-01-21T01:40:09.268Z;2;1.7630e-01;1;     0.297;    23.615;   3770.414; 1;   3770.414;   3770.488;   3782.240;   3758.625;;;;;;;;;;;;;;;;;;;;;;;; 316.801;  38.647; -12.925;  20.346; 333.486; 159.727;;;;
2001-01-21T01:41:13.267Z;2;1.7630e-01;1;     0.297;    27.410;   3770.414; 1;   3770.414;   3770.514;   3784.144;   3756.734;;;;;;;;;;;;;;;;;;;;;;;; 316.810;  39.291; -12.880;  20.346; 333.375; 159.876;;;;
2001-01-21T01:42:17.267Z;2;1.7630e-01;1;     0.297;    30.391;   3770.414; 1;   3770.414;   3770.537;   3785.640;   3755.249;;;;;;;;;;;;;;;;;;;;;;;; 316.818;  39.935; -12.834;  20.345; 333.262; 160.025;;;;
2001-01-21T01:43:21.266Z;2;1.7630e-01;1;     0.297;    29.852;   3770.414; 1;   3770.414;   3770.532;   3785.370;   3755.518;;;;;;;;;;;;;;;;;;;;;;;; 316.827;  40.579; -12.787;  20.345; 333.146; 160.174;;;;
2001-01-21T01:44:25.266Z;2;1.7630e-01;1;     0.297;    27.679;   3770.414; 1;   3770.414;   3770.516;   3784.279;   3756.600;;;;;;;;;;;;;;;;;;;;;;;; 316.836;  41.223; -12.738;  20.345; 333.027; 160.323;;;;
2001-01-21T01:45:29.266Z;2;1.7630e-01;1;     0.297;    27.095;   3770.414; 1;   3770.414;   3770.511;   3783.986;   3756.891;;;;;;;;;;;;;;;;;;;;;;;; 316.845;  41.867; -12.689;  20.345; 332.906; 160.473;;;;
2001-01-21T01:46:33.265Z;2;1.7630e-01;1;     0.297;    27.381;   3770.414; 1;   3770.414;   3770.513;   3784.129;   3756.749;;;;;;;;;;;;;;;;;;;;;;;; 316.853;  42.511; -12.638;  20.345; 332.782; 160.622;;;;
2001-01-21T01:47:37.265Z;2;1.7630e-01;1;     0.297;    27.972;   3770.414; 1;   3770.414;   3770.518;   3784.426;   3756.454;;;;;;;;;;;;;;;;;;;;;;;; 316.862;  43.155; -12.586;  20.345; 332.656; 160.771;;;;
2001-01-21T01:48:41.264Z;2;1.7630e-01;1;     0.297;    26.812;   3770.414; 1;   3770.414;   3770.509;   3783.844;   3757.032;;;;;;;;;;;;;;;;;;;;;;;; 316.871;  43.799; -12.532;  20.345; 332.528; 160.920;;;;
2001-01-21T01:49:45.264Z;2;1.7630e-01;1;     0.297;    25.658;   3770.414; 1;   3770.414;   3770.501;   3783.265;   3757.607;;;;;;;;;;;;;;;;;;;;;;;; 316.879;  44.443; -12.478;  20.345; 332.397; 161.070;;;;
2001-01-21T01:50:49.263Z;2;1.7630e-01;1;     0.297;    28.029;   3770.414; 1;   3770.414;   3770.518;   3784.454;   3756.426;;;;;;;;;;;;;;;;;;;;;;;; 316.888;  45.087; -12.422;  20.345; 332.264; 161.219;;;;
2001-01-21T01:51:53.263Z;2;1.7630e-01;1;     0.297;    24.570;   3770.414; 1;   3770.414;   3770.494;   3782.719;   3758.149;;;;;;;;;;;;;;;;;;;;;;;; 316.897;  45.731; -12.366;  20.345; 332.128; 161.368;;;;
2001-01-21T01:52:57.262Z;2;1.7630e-01;1;     0.297;    25.438;   3770.414; 1;   3770.414;   3770.500;   3783.155;   3757.716;;;;;;;;;;;;;;;;;;;;;;;; 316.906;  46.375; -12.308;  20.345; 331.991; 161.517;;;;